Location: Fort Worth, Tx
(32.7431°N, 97.3695°W)
Time: 17:08:04
(UTC-04:00)

A-11 Canister half - Pass Details

Date: 24 February 2024
Orbit: 1525 x 1683 km, 47.3° (Epoch: 21 April)

Event Time Altitude Azimuth Distance (km) Brightness Sun altitude
Rises 23:34:21 0° 265° (W) 4,758 12.0 -52.2°
Reaches altitude 10° 23:37:44 10° 273° (W) 3,753 11.4 -52.9°
Enters shadow 23:41:55 26° 291° (WNW) 2,670 10.5 -53.6°
